Wind_Speed
43 44 45 45 45 46 46 46 46 46 46 47 48 49 50 50 52 53 54 55 55 54 54 54 55 55 54 55 54 53 53 53 53 52 51 51 52 51 50 50 50 49 49
43 44 45 45 46 46 46 45 45 45 45 46 47 48 49 50 51 52 53 54 54 54 54 54 54 56 55 55 54 53 53 53 53 52 52 53 53 52 51 51 52 51 51
40 41 42 43 43 44 44 44 44 44 44 44 46 47 48 49 50 51 52 52 53 53 53 54 55 56 55 55 55 54 53 54 53 53 53 54 53 52 52 52 52 52 52
39 40 41 41 41 41 42 42 43 43 43 44 45 46 46 47 49 50 51 51 51 52 54 54 55 56 56 55 55 55 54 54 53 54 54 54 54 53 53 53 52 52 52
39 39 40 40 40 40 41 40 40 40 40 41 42 44 45 46 47 49 50 50 50 51 52 54 55 56 56 56 56 56 55 54 55 55 54 54 54 54 53 54 53 53 52
38 39 40 40 39 39 39 38 38 38 38 38 39 41 43 44 46 48 49 50 50 50 52 53 55 56 56 57 58 57 56 55 55 55 54 54 54 55 55 54 54 55 54
37 37 38 38 37 37 37 37 37 36 36 37 38 39 41 42 43 45 47 48 49 50 52 54 55 55 56 58 59 59 58 57 56 55 54 54 54 55 56 56 56 57 56
36 37 37 36 36 35 36 36 36 35 35 35 35 37 39 39 41 43 45 47 48 50 51 54 55 55 56 57 58 59 59 58 57 57 56 56 56 57 58 58 58 58 58
35 35 35 35 34 34 34 35 35 35 35 34 35 36 37 38 40 42 44 45 47 49 52 54 54 56 56 57 58 59 59 59 59 59 58 58 58 58 59 59 59 59 59
34 34 34 34 34 34 34 34 35 34 35 35 35 36 36 38 39 40 42 44 45 47 50 52 53 55 57 58 58 59 59 60 61 60 59 59 59 59 60 60 60 60 60
33 32 33 33 33 34 34 34 35 35 36 36 37 37 38 38 39 40 41 43 44 45 47 49 51 53 55 57 58 59 59 60 61 61 60 60 60 60 60 60 60 61 61
30 31 31 32 33 34 34 35 35 36 37 37 37 37 37 38 38 39 40 42 43 45 46 47 49 50 52 54 56 58 58 59 60 60 60 59 59 59 60 60 60 61 61
28 28 29 31 32 33 33 34 35 36 37 38 38 38 38 38 38 39 40 40 41 43 44 46 47 48 49 50 52 54 57 58 59 60 59 58 58 58 58 59 59 60 60
25 26 27 29 30 31 32 34 35 36 37 37 38 38 38 38 37 38 38 40 41 41 43 44 44 45 46 47 48 50 53 55 57 58 58 58 57 57 58 58 58 59 59
24 25 26 27 28 30 31 32 33 34 36 36 37 37 36 37 37 37 38 39 40 42 42 43 43 44 44 44 45 47 49 51 54 56 57 57 57 57 58 58 58 58 58
24 25 25 26 27 28 28 29 30 32 32 33 34 35 35 35 36 35 35 36 38 39 40 41 43 44 44 44 44 45 46 47 49 51 53 54 56 56 56 57 57 56 56
22 23 24 25 25 26 26 27 27 28 29 30 31 32 32 33 33 34 33 34 36 37 39 39 40 41 42 43 44 44 44 45 46 48 49 50 51 52 53 54 54 54 54
21 22 23 24 25 25 25 25 25 26 27 28 28 29 30 30 31 32 33 34 34 35 35 37 38 38 38 39 40 41 42 43 44 45 46 47 48 49 50 52 52 52 52
21 21 22 23 23 24 24 24 24 24 25 26 27 28 29 30 30 30 31 31 31 32 32 33 34 35 36 36 37 39 40 40 41 42 43 43 44 45 46 47 49 50 51
21 22 22 22 22 22 22 23 23 24 24 25 26 27 29 29 29 30 30 30 30 30 31 31 32 32 34 35 35 36 37 38 39 40 40 40 41 42 43 43 45 46 48
22 22 22 22 22 22 22 23 23 23 24 25 25 26 27 28 29 29 29 29 28 28 28 28 28 30 31 32 33 34 35 36 36 37 38 38 39 39 40 41 42 42 44
22 21 21 21 21 22 22 22 23 23 24 25 25 26 26 27 28 28 28 28 27 27 27 27 28 28 29 30 31 32 33 33 34 35 36 37 37 38 39 39 39 39 40
21 21 21 20 20 20 21 22 23 23 23 24 25 26 26 26 27 27 28 28 28 27 28 28 28 28 28 29 29 30 30 30 31 32 34 35 37 38 38 39 39 39 39
20 20 20 20 20 20 21 22 23 23 24 24 24 25 25 25 26 26 27 28 28 28 28 28 28 28 29 29 28 28 29 30 30 31 33 34 35 36 37 37 38 38 39
19 19 20 20 21 21 21 21 22 22 23 23 24 24 24 24 25 25 26 27 27 28 28 28 28 28 29 29 29 29 30 30 31 31 32 33 34 35 36 37 38 38 38
19 20 20 21 21 21 21 20 20 21 21 22 23 23 23 24 24 24 25 26 27 28 28 29 29 30 30 30 30 31 31 32 33 33 34 34 34 35 36 37 37 38 38
Wind_Direction
266 265 264 263 262 260 260 259 258 257 256 255 253 251 249 248 246 245 244 242 241 240 240 240 240 240 240 241 242 244 246 247 248 248 248 249 250 250 251 252 253 254 254
267 266 264 263 262 261 259 259 258 256 255 253 252 251 249 247 246 244 243 242 241 240 239 240 239 239 240 241 242 244 246 247 248 248 249 250 251 251 251 252 253 254 254
267 266 265 264 263 261 259 258 257 256 255 253 252 251 249 247 245 244 243 242 242 240 239 240 240 240 240 241 242 244 246 247 247 249 250 251 251 252 251 252 253 254 255
268 267 266 264 263 261 258 257 257 256 255 254 252 250 248 246 244 243 243 242 242 242 241 241 241 241 242 242 243 244 245 247 248 249 250 251 251 252 252 252 253 254 255
268 266 265 264 263 261 258 257 257 256 255 254 251 248 247 245 244 243 243 242 242 242 242 243 242 241 242 243 243 244 245 247 248 250 251 251 252 253 253 253 253 254 255
268 267 264 263 262 260 257 256 255 254 253 250 248 247 246 245 244 243 243 243 242 242 243 244 243 242 242 244 244 244 245 246 248 249 251 252 253 254 254 254 254 254 256
268 267 265 263 262 259 255 254 254 253 252 249 248 246 245 244 245 245 244 243 244 244 244 244 243 243 244 245 245 245 246 247 248 250 251 252 253 254 255 255 255 255 257
268 267 265 262 259 257 255 253 252 252 252 249 248 246 245 244 245 246 246 246 246 246 245 245 245 246 245 245 245 246 246 247 249 250 253 254 254 255 256 256 256 256 257
267 265 263 260 257 256 255 253 252 252 251 250 250 248 247 247 248 248 247 247 247 247 246 246 247 247 247 247 247 247 247 248 249 251 253 253 254 255 255 255 256 256 257
267 263 261 259 255 254 254 253 253 253 252 251 251 250 249 249 249 249 249 249 248 248 247 248 249 249 248 249 249 249 249 249 250 252 253 254 254 255 255 255 256 257 258
267 262 259 257 256 254 253 252 253 253 253 252 252 252 252 251 251 252 253 252 251 249 248 249 251 251 252 251 250 250 251 250 251 252 253 254 255 255 255 256 257 258 259
266 262 259 257 256 255 253 252 254 253 254 254 254 253 253 253 253 253 254 254 252 251 251 252 252 252 252 252 252 252 251 250 250 251 253 254 255 255 256 257 258 258 259
264 262 260 257 256 255 254 254 254 253 254 254 254 254 254 255 254 253 253 253 253 253 253 254 253 253 253 252 252 252 251 250 251 252 253 253 255 256 256 257 257 258 259
262 262 261 259 257 256 256 257 255 255 255 255 255 255 254 253 253 253 253 254 255 255 256 256 255 254 253 253 253 253 253 252 252 253 253 253 254 255 256 256 256 257 258
264 263 262 261 258 256 257 257 258 257 255 255 254 254 253 251 252 253 253 254 256 258 259 257 256 254 253 254 254 255 254 253 253 254 254 253 254 255 255 255 255 256 257
265 264 264 262 260 259 259 259 259 259 256 253 253 253 252 252 253 254 256 256 257 258 259 259 258 256 254 254 254 255 255 255 255 255 255 254 253 253 253 253 254 255 256
268 267 267 266 265 265 263 262 261 259 257 256 255 254 254 254 255 254 255 256 258 259 259 260 259 258 256 255 254 255 255 255 255 255 255 254 253 253 253 253 253 254 256
271 272 272 270 268 267 266 265 262 261 260 258 256 256 256 256 258 258 257 259 260 260 260 259 259 258 256 255 254 254 255 256 256 255 255 254 253 253 253 253 254 255 256
276 275 275 274 271 268 266 264 263 263 262 261 259 259 259 260 261 262 262 262 261 260 259 258 257 255 254 254 253 254 255 255 255 253 253 253 254 254 254 255 255 256 257
279 278 277 275 273 270 266 263 262 263 263 262 262 262 262 263 263 263 263 262 262 261 259 257 255 254 254 254 254 254 254 255 255 253 253 253 254 254 255 256 258 258 258
279 278 277 275 272 270 268 265 264 265 266 266 265 263 263 263 263 263 263 262 260 259 258 258 258 257 257 257 256 255 256 256 255 254 253 253 253 255 257 259 260 260 260
278 278 276 274 272 271 269 267 267 268 267 266 265 264 263 262 262 262 261 260 258 258 258 259 260 260 260 259 258 257 256 256 256 255 254 254 256 256 257 258 260 261 262
278 276 275 274 273 272 270 268 269 269 269 268 266 264 264 263 262 261 261 260 258 259 258 259 260 260 260 259 258 256 256 255 255 255 256 256 257 257 258 259 260 261 261
279 277 275 274 273 272 272 271 271 269 269 269 267 265 265 265 264 263 262 262 260 259 259 259 258 258 259 260 259 258 257 257 257 257 258 259 259 259 259 260 260 260 260
282 279 277 276 275 274 274 273 272 271 270 269 268 268 268 268 267 265 263 263 262 261 259 258 258 258 259 259 260 260 260 260 260 261 261 261 261 261 261 261 261 260 259
285 282 280 279 278 277 276 275 275 274 274 273 272 271 269 269 268 267 265 263 262 262 261 260 260 261 261 260 260 261 261 262 263 263 263 263 262 262 262 262 261 261 260
Height
5549 5548 5547 5547 5546 5546 5547 5548 5549 5551 5552 5553 5555 5557 5560 5564 5568 5572 5577 5582 5588 5594 5600 5606 5611 5617 5623 5628 5633 5638 5642 5647 5651 5655 5659 5662 5665 5668 5671 5674 5676 5679 5681
5536 5535 5534 5533 5533 5533 5533 5534 5535 5537 5538 5540 5541 5544 5547 5550 5554 5559 5563 5568 5574 5580 5586 5592 5598 5604 5609 5615 5620 5625 5629 5634 5638 5642 5646 5649 5652 5655 5658 5661 5664 5666 5669
5523 5522 5521 5520 5520 5520 5520 5521 5522 5524 5525 5526 5528 5531 5534 5537 5541 5546 5550 5555 5561 5567 5573 5579 5585 5590 5596 5601 5606 5611 5615 5620 5624 5628 5632 5636 5639 5642 5645 5648 5651 5653 5656
5512 5510 5509 5508 5508 5507 5508 5509 5510 5511 5513 5514 5516 5519 5522 5525 5529 5533 5538 5543 5549 5554 5560 5566 5572 5577 5583 5588 5593 5598 5602 5607 5611 5615 5619 5622 5625 5628 5632 5635 5638 5640 5643
5500 5499 5497 5496 5496 5496 5497 5498 5499 5500 5501 5502 5504 5507 5510 5514 5518 5522 5526 5531 5536 5542 5547 5553 5558 5564 5569 5574 5579 5584 5589 5593 5597 5601 5605 5608 5611 5615 5618 5621 5624 5627 5629
5488 5487 5486 5485 5485 5485 5486 5487 5488 5489 5491 5492 5494 5497 5500 5503 5506 5510 5514 5519 5524 5529 5534 5539 5544 5550 5555 5560 5565 5570 5575 5579 5583 5587 5591 5595 5598 5601 5604 5607 5610 5613 5616
5477 5475 5474 5474 5474 5474 5475 5476 5478 5480 5481 5482 5484 5487 5490 5493 5495 5499 5503 5507 5512 5517 5521 5526 5531 5536 5541 5546 5550 5555 5560 5564 5569 5574 5577 5581 5584 5587 5590 5593 5595 5598 5601
5465 5464 5464 5464 5464 5464 5465 5467 5469 5471 5472 5474 5475 5477 5480 5482 5485 5488 5491 5495 5500 5504 5508 5513 5518 5522 5527 5531 5536 5540 5545 5550 5555 5559 5564 5567 5569 5571 5574 5577 5579 5582 5585
5454 5454 5453 5453 5454 5455 5456 5458 5460 5462 5464 5465 5466 5468 5470 5473 5475 5478 5480 5483 5487 5491 5495 5500 5504 5508 5513 5517 5521 5526 5531 5535 5538 5543 5547 5550 5553 5556 5558 5561 5563 5566 5569
5444 5443 5443 5444 5445 5446 5448 5449 5451 5452 5454 5455 5457 5459 5460 5463 5465 5467 5469 5472 5476 5479 5483 5486 5490 5494 5498 5501 5505 5510 5515 5519 5523 5527 5530 5534 5536 5539 5542 5544 5547 5550 5552
5434 5433 5434 5434 5436 5437 5439 5440 5441 5443 5445 5447 5448 5449 5450 5452 5454 5456 5458 5461 5463 5466 5469 5473 5476 5479 5482 5486 5490 5495 5499 5503 5506 5510 5513 5517 5519 5522 5525 5528 5530 5533 5536
5424 5424 5424 5425 5426 5428 5429 5430 5432 5433 5435 5436 5438 5439 5440 5442 5443 5445 5447 5449 5452 5455 5457 5460 5462 5465 5468 5471 5474 5478 5482 5485 5488 5492 5496 5500 5503 5506 5509 5511 5513 5515 5518
5415 5415 5415 5416 5417 5418 5420 5421 5422 5423 5425 5426 5427 5428 5430 5432 5433 5434 5436 5438 5440 5442 5444 5446 5449 5451 5454 5456 5459 5462 5465 5468 5471 5475 5479 5483 5487 5489 5491 5494 5496 5498 5500
5407 5407 5407 5408 5408 5409 5410 5412 5413 5414 5415 5416 5417 5418 5420 5421 5423 5424 5425 5427 5428 5430 5432 5433 5435 5437 5439 5442 5444 5446 5449 5452 5455 5459 5463 5466 5469 5472 5474 5477 5479 5481 5483
5399 5399 5399 5400 5400 5401 5401 5402 5403 5404 5405 5406 5407 5408 5410 5411 5413 5414 5414 5415 5416 5418 5419 5421 5423 5425 5426 5428 5430 5433 5435 5437 5439 5442 5445 5449 5452 5454 5457 5460 5462 5464 5467
5392 5391 5391 5392 5392 5392 5393 5393 5393 5394 5395 5396 5397 5398 5399 5401 5402 5403 5404 5405 5405 5406 5408 5409 5410 5412 5413 5415 5417 5419 5421 5423 5425 5427 5429 5432 5435 5437 5440 5443 5445 5448 5450
5385 5384 5384 5384 5384 5384 5384 5384 5384 5385 5385 5386 5387 5389 5390 5391 5392 5393 5394 5394 5395 5395 5396 5397 5398 5399 5400 5402 5404 5406 5407 5409 5411 5412 5415 5417 5419 5421 5424 5426 5429 5432 5434
5378 5377 5377 5376 5376 5376 5376 5376 5376 5376 5377 5377 5378 5379 5381 5382 5382 5383 5383 5384 5384 5384 5385 5385 5386 5387 5388 5389 5391 5392 5394 5395 5397 5398 5400 5402 5404 5406 5408 5411 5414 5416 5419
5371 5371 5370 5369 5368 5368 5368 5368 5368 5369 5369 5369 5370 5371 5372 5372 5373 5373 5373 5374 5374 5374 5374 5374 5375 5375 5376 5377 5379 5380 5381 5382 5384 5385 5387 5389 5391 5393 5395 5397 5400 5402 5404
5365 5364 5363 5362 5361 5361 5360 5361 5361 5361 5361 5362 5362 5362 5363 5363 5363 5363 5363 5364 5364 5364 5364 5364 5365 5365 5366 5367 5367 5368 5369 5370 5372 5373 5375 5377 5379 5381 5383 5384 5386 5388 5390
5358 5357 5355 5354 5354 5353 5353 5353 5353 5353 5353 5353 5353 5354 5354 5354 5354 5354 5354 5354 5354 5355 5355 5355 5355 5355 5356 5356 5357 5357 5358 5359 5360 5362 5363 5365 5367 5369 5371 5372 5374 5375 5376
5350 5349 5348 5347 5347 5346 5346 5346 5345 5345 5345 5345 5345 5345 5345 5345 5345 5345 5345 5345 5345 5345 5345 5346 5346 5346 5346 5347 5347 5348 5348 5349 5350 5351 5353 5355 5356 5358 5359 5361 5362 5362 5363
5343 5342 5341 5341 5340 5339 5339 5338 5338 5337 5337 5337 5337 5337 5336 5336 5336 5336 5336 5336 5336 5336 5336 5337 5337 5337 5337 5338 5338 5339 5340 5340 5341 5342 5343 5345 5346 5347 5348 5349 5350 5350 5351
5336 5335 5334 5334 5333 5332 5331 5331 5330 5329 5329 5329 5328 5328 5327 5327 5327 5326 5326 5326 5326 5327 5327 5327 5328 5328 5328 5329 5329 5330 5330 5331 5332 5333 5333 5334 5335 5335 5336 5337 5338 5338 5339
5330 5328 5328 5327 5326 5325 5324 5323 5322 5321 5321 5320 5320 5319 5319 5318 5318 5317 5317 5317 5317 5317 5317 5318 5318 5319 5319 5320 5320 5320 5321 5322 5322 5323 5323 5324 5324 5325 5325 5326 5326 5327 5327
5323 5321 5320 5319 5318 5317 5316 5315 5314 5313 5313 5312 5311 5311 5310 5310 5309 5308 5308 5308 5308 5308 5308 5308 5308 5309 5309 5310 5310 5310 5311 5311 5312 5312 5313 5313 5314 5314 5314 5314 5315 5315 5316